Theta_e
330 331 333 333 334 331 333 335 335 334 332 338 339 340 339 339 342 345 343 344 343 343 341 339 339 337 335 334 333 330 330 327 326 327 326 326 326 324 326 326 321 321 319 317
332 331 332 330 329 332 332 335 334 333 333 338 339 342 338 337 338 342 344 345 344 343 340 337 336 334 334 331 329 329 327 327 325 325 324 323 323 322 320 322 320 319 318 317
331 332 330 330 332 331 331 333 333 332 338 339 340 344 341 341 342 340 340 341 340 338 338 336 333 330 327 328 328 327 326 325 325 322 322 322 320 319 319 317 317 317 317 317
331 332 329 330 333 329 331 331 331 339 338 347 339 347 339 340 335 336 341 337 336 336 334 332 330 328 326 325 326 326 325 324 323 322 321 319 318 319 318 318 317 317 317 317
331 329 331 333 333 330 330 332 337 339 342 342 342 340 344 341 341 342 339 336 335 333 331 329 327 326 325 325 324 325 324 323 322 321 319 318 318 318 318 318 318 317 316 316
330 332 333 333 330 333 334 337 337 339 338 351 344 342 351 344 336 340 338 335 334 332 330 329 327 324 326 326 324 324 325 321 319 320 318 318 316 319 317 316 317 317 316 314
332 331 331 329 330 332 332 333 335 342 345 346 341 346 346 341 339 341 338 336 333 330 329 328 327 325 326 326 324 323 323 321 318 318 318 315 314 315 316 316 316 316 316 316
333 335 333 332 330 330 330 334 340 343 332 338 340 346 349 338 337 337 336 335 332 330 329 327 327 327 326 325 325 323 323 321 318 318 316 315 315 316 316 316 316 316 316 316
337 337 334 331 329 330 333 333 332 334 338 341 345 345 341 339 338 337 336 334 333 331 329 327 326 326 326 324 324 321 322 320 317 318 316 316 316 316 316 316 316 316 316 317
339 339 334 333 330 334 335 335 335 333 335 338 345 347 345 341 339 338 337 335 334 331 328 326 326 326 325 323 323 321 320 318 316 317 316 316 316 316 317 316 316 317 316 317
333 334 335 334 336 330 329 333 333 333 337 339 338 340 341 342 341 338 336 334 333 330 328 326 326 326 324 322 321 321 319 317 316 317 316 316 316 317 316 317 317 316 316 315
334 336 334 340 338 335 330 330 335 335 337 337 338 349 338 339 338 337 335 334 332 330 328 326 325 325 324 322 321 320 318 316 316 317 316 315 316 315 318 318 317 316 315 315
338 333 334 339 339 338 333 332 332 334 342 345 341 343 338 337 337 336 335 334 332 330 328 327 325 324 323 322 321 320 318 316 316 316 315 315 316 316 317 318 317 317 315 315
348 339 337 340 337 329 331 333 333 334 338 335 339 341 341 339 338 336 335 333 332 330 327 327 326 323 322 321 321 320 318 317 316 315 316 316 316 316 315 317 317 316 315 314
342 334 334 332 331 329 330 331 331 332 331 334 335 341 341 340 340 338 336 333 332 329 327 326 326 324 322 322 320 321 318 317 317 315 315 316 316 316 315 316 318 316 315 314
344 343 336 334 333 332 331 331 332 332 333 334 339 341 338 336 338 338 334 333 332 328 326 326 326 324 323 322 320 321 318 318 317 316 315 316 315 316 315 315 317 317 317 315
349 343 338 335 339 337 333 336 334 332 333 336 337 336 335 335 336 335 334 331 331 328 326 326 326 325 323 321 321 320 318 318 317 316 316 316 315 315 315 315 316 318 318 315
352 353 341 342 339 337 339 336 333 332 333 335 335 337 333 332 335 332 333 333 331 327 325 325 326 324 323 321 321 320 318 318 316 316 316 315 315 315 315 316 317 317 317 317
350 348 340 341 336 333 339 335 334 335 342 340 334 333 331 332 332 334 333 331 329 327 324 325 324 324 324 321 322 320 319 318 316 316 316 315 315 316 316 316 316 315 318 317
344 347 342 338 335 339 342 336 334 334 336 336 330 330 331 333 333 336 333 328 327 324 325 325 325 324 323 322 322 321 319 318 316 316 316 316 316 316 317 315 317 316 317 317
344 345 343 337 336 339 340 336 333 332 342 333 330 328 331 336 340 340 332 329 327 325 325 324 324 326 323 322 322 322 319 318 317 316 316 316 316 316 317 315 316 316 317 318
345 347 342 341 337 343 338 336 337 343 343 335 335 329 331 341 336 333 330 328 324 325 324 324 324 326 324 322 322 322 320 318 317 317 317 317 316 316 315 316 315 318 317 317
342 343 345 341 344 346 337 350 345 343 340 335 336 331 328 334 332 330 330 328 324 324 324 323 324 325 325 323 323 322 320 318 317 318 317 317 317 316 315 317 316 317 315 317
342 340 336 336 335 342 338 340 339 335 336 336 337 334 330 332 333 332 330 330 326 323 323 323 323 323 325 325 323 323 320 319 318 318 318 317 317 317 317 316 315 316 317 316
337 338 342 339 336 335 338 339 338 335 335 334 334 332 332 332 333 333 331 331 327 324 323 322 323 323 323 325 323 323 321 320 319 319 319 318 318 316 318 316 317 316 316 316
335 341 333 341 343 345 343 338 337 335 333 335 335 332 329 328 333 331 330 330 328 325 323 323 323 323 323 323 323 323 322 321 321 320 320 319 317 317 317 316 317 316 316 315
Wind_Speed
15 9 11 24 13 14 13 11 12 17 3 9 13 11 14 18 8 19 13 13 11 11 20 16 20 17 16 17 20 22 22 25 28 23 25 24 26 24 21 17 22 21 21 24
15 3 9 8 6 13 11 12 4 11 3 8 4 26 17 23 25 14 14 17 13 12 14 17 15 14 14 16 20 21 22 22 26 26 25 25 25 23 25 20 23 20 19 17
6 4 4 7 8 3 6 10 4 10 14 21 22 24 13 11 13 30 7 11 17 15 13 11 13 14 18 19 19 18 19 21 23 24 24 24 23 20 21 22 22 20 15 13
1 7 5 3 8 12 3 11 13 22 10 5 7 4 8 9 10 30 8 12 13 14 11 11 13 15 17 16 18 17 17 19 20 22 22 24 21 18 20 21 20 21 13 17
6 0 6 10 3 9 13 11 18 22 15 8 11 10 10 18 12 12 11 11 11 10 10 12 16 16 17 17 16 15 15 20 22 21 21 21 21 19 18 22 21 25 22 21
12 7 9 6 5 10 12 9 3 5 4 2 18 9 4 7 10 10 11 10 8 11 12 15 17 17 16 15 14 13 17 21 20 19 19 20 23 21 23 23 22 24 23 25
5 5 6 3 8 5 9 14 4 2 5 3 7 6 6 14 17 10 13 11 9 13 13 11 15 15 15 12 12 14 18 16 20 17 18 20 20 21 21 20 19 20 19 20
3 5 2 3 5 7 13 7 6 12 12 4 17 7 6 13 13 12 12 10 12 11 10 10 16 14 12 12 12 15 14 13 15 15 17 18 18 17 16 17 17 17 18 20
5 8 3 4 7 7 8 10 9 8 16 5 7 4 5 3 10 12 11 11 10 7 8 10 17 14 12 14 16 15 11 11 16 14 16 16 14 15 16 17 17 16 18 19
14 8 6 5 5 4 7 5 7 6 6 11 8 7 5 10 9 10 8 10 9 2 11 11 15 13 14 13 15 16 16 16 17 11 13 12 13 14 14 17 18 18 19 19
5 4 4 6 3 9 7 4 6 6 5 6 7 8 11 10 12 6 11 8 8 9 10 11 15 14 13 13 14 15 15 16 16 10 12 12 14 14 14 13 16 19 19 21
3 2 4 17 20 13 4 6 7 5 11 9 7 1 10 10 10 7 9 10 11 4 8 12 14 13 13 11 11 13 15 15 14 11 12 15 12 16 14 12 14 17 18 18
3 2 7 4 8 13 4 7 1 3 6 2 8 4 8 11 10 7 10 8 7 5 8 11 12 12 13 10 11 11 13 14 12 8 12 11 11 17 16 14 12 15 17 19
3 4 3 8 10 6 2 5 3 2 4 10 9 6 6 9 10 10 10 1 8 8 9 10 8 11 12 10 8 10 11 12 12 11 7 7 9 14 17 15 12 15 16 18
2 4 11 6 5 5 8 5 5 8 8 5 9 14 5 4 2 7 9 2 1 10 9 9 8 9 10 9 9 9 10 9 11 11 10 6 7 11 15 15 11 13 13 15
2 5 7 11 9 4 8 6 4 5 1 4 12 10 3 7 14 9 3 1 7 10 8 8 8 8 8 8 9 9 8 7 9 10 8 9 11 7 12 15 10 13 11 14
7 6 2 10 11 5 8 7 7 5 2 4 5 3 6 1 5 3 5 4 9 8 6 5 7 8 5 7 7 8 6 6 8 10 9 10 9 10 8 12 14 10 10 12
5 7 5 10 10 10 8 5 6 2 2 3 3 8 6 6 6 1 8 12 9 7 7 6 10 8 5 6 6 7 6 8 8 7 9 9 10 11 11 13 14 12 10 8
6 5 5 6 7 11 11 6 6 4 5 4 5 6 5 4 3 7 12 12 10 9 7 9 9 7 4 5 5 6 6 8 8 7 8 8 8 9 11 11 12 14 10 7
10 4 5 7 6 12 12 9 7 6 3 8 6 4 3 1 6 8 11 11 10 8 7 8 8 6 5 4 4 6 7 8 7 6 6 6 6 8 7 10 9 11 9 6
7 5 9 9 7 4 9 8 4 3 5 8 7 5 3 5 8 8 9 11 9 9 9 6 4 8 3 2 3 4 6 7 6 6 6 6 5 11 3 10 9 8 7 2
8 3 7 6 5 3 11 4 4 8 8 8 8 4 5 12 9 7 9 8 8 7 7 6 5 8 3 0 3 4 5 5 5 6 6 6 7 9 9 10 10 10 8 5
5 10 1 3 2 3 2 8 10 9 9 8 8 5 4 7 6 7 8 7 5 5 5 4 5 8 4 3 0 4 3 3 4 5 5 7 5 6 6 9 15 17 9 6
7 2 2 3 2 8 5 7 9 8 7 9 9 7 5 7 8 8 8 8 5 6 4 5 3 5 7 5 3 2 2 2 5 5 7 7 10 11 9 6 9 12 10 11
2 3 2 7 6 8 7 9 9 9 9 8 10 8 7 7 8 8 9 10 6 6 6 3 5 2 4 5 4 4 3 3 5 7 9 13 8 11 10 10 9 6 7 9
7 5 1 6 9 9 7 2 9 7 7 8 8 8 7 7 6 10 10 12 8 7 7 7 5 4 5 5 5 5 4 4 5 7 10 11 10 13 16 14 2 6 8 10
Wind_Direction
214 236 266 191 222 256 51 64 41 342 68 132 115 99 66 46 232 105 112 109 109 98 85 79 72 63 56 50 49 40 34 29 16 18 16 3 355 3 17 33 29 23 16 8
251 268 316 24 325 20 12 89 132 244 315 103 118 43 25 0 336 75 115 127 116 110 88 72 66 71 72 70 60 48 37 33 26 14 18 4 359 5 12 16 15 17 17 16
242 249 27 296 43 56 355 323 339 299 99 60 51 9 71 278 333 336 35 62 85 78 86 93 83 73 59 81 67 53 46 32 32 24 17 11 8 11 14 6 11 356 17 20
32 229 285 309 352 13 350 17 343 30 64 54 16 239 217 91 95 263 94 76 94 108 112 91 79 58 67 56 68 56 51 40 29 27 25 18 6 10 22 3 1 358 20 39
355 219 44 56 244 343 357 3 65 88 92 123 238 241 140 175 191 278 112 113 108 110 87 70 54 62 55 45 40 59 53 49 35 24 32 27 11 7 14 4 9 9 17 19
257 57 95 162 320 29 341 76 280 52 176 158 246 206 323 198 176 231 123 99 90 99 78 77 59 52 51 45 26 45 60 43 26 31 30 35 11 14 25 11 10 359 1 3
173 205 80 295 325 28 320 307 311 226 224 280 282 170 150 198 192 177 116 109 77 62 62 54 61 33 47 33 35 17 63 38 27 30 48 30 22 11 14 5 2 357 354 355
151 23 345 99 16 347 298 336 356 335 320 66 42 35 353 79 89 94 88 94 69 54 63 48 66 40 21 14 49 32 52 39 27 42 46 32 20 9 5 354 352 350 353 352
18 214 156 24 334 358 342 335 338 292 298 107 130 324 121 295 133 119 107 97 71 47 83 57 68 51 21 19 66 35 53 48 34 70 48 35 16 7 356 357 3 4 3 2
155 199 217 125 281 166 282 338 341 337 328 342 176 137 189 205 151 116 141 119 94 20 68 63 69 62 31 22 53 40 23 36 26 61 46 32 16 2 1 6 6 10 7 14
322 2 127 254 9 347 322 335 8 324 328 324 347 74 107 157 141 132 101 95 109 72 47 57 68 65 42 28 21 41 23 22 24 69 53 31 14 359 3 8 14 12 12 14
19 4 327 44 358 347 358 13 30 359 348 1 346 316 11 107 112 106 97 87 65 69 46 58 59 59 52 38 24 39 32 18 22 99 59 36 7 2 2 10 15 11 12 9
33 231 264 13 0 283 291 70 233 55 287 346 298 35 242 94 100 111 108 87 133 98 59 60 42 50 55 35 39 31 32 14 19 66 44 27 11 5 7 9 12 20 12 14
312 299 291 170 245 357 252 175 203 185 280 344 34 146 136 149 165 136 114 123 109 80 71 69 45 42 57 38 39 31 42 17 9 5 45 51 23 13 14 16 29 23 20 15
275 262 268 283 3 311 312 314 34 2 350 343 3 66 76 153 184 110 104 158 106 83 67 71 70 46 43 37 17 39 44 20 358 360 21 42 35 26 9 17 19 27 26 27
204 267 292 316 271 251 294 289 161 266 12 321 47 25 359 53 99 99 161 178 81 71 66 65 71 60 33 32 11 38 43 4 0 351 24 17 13 35 9 16 12 20 14 31
182 253 293 274 347 301 287 356 130 103 226 62 3 60 49 26 132 139 192 177 89 78 75 78 88 81 55 35 20 30 28 358 16 352 16 31 3 21 36 12 14 16 17 29
207 227 254 276 219 279 110 93 75 30 50 99 10 54 19 335 122 63 94 83 93 94 69 83 94 94 64 34 28 30 3 29 16 8 6 31 12 22 15 17 7 12 19 33
238 212 245 320 279 292 157 120 130 114 84 89 45 38 6 35 35 134 97 83 84 86 97 88 94 99 83 37 17 21 5 25 10 19 6 26 14 9 15 16 4 3 9 27
198 224 273 272 314 289 135 118 119 135 149 87 62 28 42 359 246 96 99 105 104 100 106 121 122 129 96 51 6 19 13 24 11 6 357 11 12 340 14 2 352 351 5 25
206 208 238 246 249 49 101 134 168 248 90 80 83 57 79 76 93 104 101 103 116 120 123 126 147 111 106 65 0 17 16 13 7 353 347 2 355 324 40 358 343 331 340 18
270 257 222 234 254 190 194 170 326 124 115 114 90 53 98 121 139 147 120 117 124 145 137 186 156 139 161 210 1 3 27 348 359 350 352 343 1 344 345 330 323 311 291 311
145 216 65 75 252 301 118 99 129 145 139 129 127 115 129 135 167 167 127 137 131 166 150 187 157 146 181 207 219 339 359 335 338 348 341 331 333 323 342 329 331 315 343 261
189 176 289 266 208 172 179 120 153 187 154 144 140 148 150 165 178 171 143 141 160 159 187 189 177 198 182 203 236 265 307 328 314 317 314 304 282 272 271 318 331 348 1 358
82 116 97 285 305 294 168 178 185 193 165 166 157 177 167 171 184 172 148 150 183 160 185 186 211 200 232 196 233 264 277 286 292 306 295 291 314 321 273 300 266 315 326 315
359 359 343 32 36 19 17 88 149 206 204 177 177 178 177 191 181 173 153 156 168 180 191 174 217 211 248 255 232 244 244 258 281 294 312 334 312 302 298 283 229 302 319 317